Regional Weather Roundup
Issued by NWS

Home | Current Version | Previous Version | Graphics & Text | Print | Product List | Glossary On
Versions: 1 2 3 4 5 6 7 8 9 10 11 12 13 14 15 16 17 18 19 20 21 22 23 24 25 26 27 28 29 30 31 32 33 34 35 36 37 38 39 40 41 42 43 44 45 46 47 48 49 50
000
ASUS43 KLMK 122102
RWRKY
KENTUCKY REGIONAL WEATHER ROUNDUP
NATIONAL WEATHER SERVICE LOUISVILLE KY
400 PM EST FRI FEB 12 2016

NOTE "FAIR" INDICATES FEW OR NO CLOUDS BELOW 12,000 FEET
WITH NO SIGNIFICANT WEATHER AND/OR OBSTRUCTIONS TO VISIBILITY.

KYZ001>023-026-027-061>063-070>075-122200-
WESTERN AND SOUTH CENTRAL KENTUCKY

CITY           SKY/WX    TMP DP  RH WIND       PRES   REMARKS
PADUCAH        CLOUDY    38  24  57 NW14G21   30.26R WCI  30
HENDERSON      CLOUDY    30  23  74 W10       30.25R WCI  21
OWENSBORO      CLOUDY    32  26  78 NW14      30.24R WCI  22
HOPKINSVILLE   PTSUNNY   37  26  66 NW13G20   30.22R WCI  28
BOWLING GREEN  CLOUDY    34  25  69 NW10      30.21R WCI  26
GLASGOW        NOT AVBL
$$

KYZ024-025-028>034-038-045-046-053-122200-
NORTH CENTRAL KENTUCKY

CITY           SKY/WX    TMP DP  RH WIND       PRES   REMARKS
LOUISVILLE/SDF CLOUDY    33  19  56 W21G30    30.16R WCI  21
LOUISVILLE/LOU CLOUDY    33  20  58 NW18G28   30.16R WCI  22
FORT KNOX      CLOUDY    33  22  64 W13       30.14R WCI  24
$$

KYZ035>037-039>044-047>052-055>060-089>105-122200-
NORTHEAST KENTUCKY

CITY           SKY/WX    TMP DP  RH WIND       PRES   REMARKS
LEXINGTON      CLOUDY    31  20  63 W14G23    30.10R WCI  21
COVINGTON      CLOUDY    28  17  63 W16G22    30.07F WCI  16
FRANKFORT      CLOUDY    32  20  61 VRB7      30.11R WCI  26
$$

KYZ054-064>069-076>088-106>120-122200-
SOUTHEAST KENTUCKY

CITY           SKY/WX    TMP DP  RH WIND       PRES   REMARKS
JACKSON        CLOUDY    30  20  66 CALM      30.05R
LONDON         CLOUDY    30  23  75 W10       30.10R WCI  21
SOMERSET       NOT AVBL
MIDDLESBORO    NOT AVBL
MONTICELLO     CLOUDY    32  26  78 NW16      30.16R WCI  21
$$




USA.gov is the U.S. government's official web portal to all federal, state and local government web resources and services.